[[{"header":{"parameterUnit":"m.s-1","parameterCategory":1,"la1":30.2991,"la2":30.254,"lo1":-89.0895,"lo2":-89.0444,"dy":0.0017,"dx":0.0017,"nx":28,"ny":28,"refTime":"2024-02-05T09:00:00:Z","depth":0,"parameterNumber":2,"parameterNumberName":"U-component_of_WINDS"},"data":[0,0,0,0,0,0,0,0,0,0,0,0,0,0,0,0,0,0,0,0,0,0,0,0,0,0,0,0,0,0,0,0,0,0,0,0,0,0,0,0,0,0,0,0,0,0,0,0,0,0,0,0,0,0,0,0,0,0,1.8374,1.8375,0,1.8433,1.8434,1.8435,1.8396,1.8394,1.8392,1.839,1.8453,1.8456,1.8459,0,0,0,0,0,0,0,0,0,0,0,0,0,1.8232,1.8234,1.8374,1.8375,1.8376,1.8433,1.8434,1.8435,1.8396,1.8394,1.8392,1.839,1.8452,1.8456,1.846,0,0,0,0,0,0,0,0,0,0,0,0,0,1.8293,1.8235,1.8374,1.8363,1.8363,1.8433,1.8434,1.8435,1.8397,1.8394,1.8391,1.8389,1.845,1.8455,1.846,1.8545,0,0,1.8475,1.8478,0,0,0,0,0,0,0,0,1.8289,1.8298,1.8364,1.8364,1.8364,1.8404,1.8407,1.8472,1.8397,1.8384,1.839,1.8387,1.8439,1.8445,1.8462,1.8548,1.8551,1.8476,1.8479,1.8481,1.8482,0,0,0,0,0,0,0,1.8285,1.8295,1.8398,1.8365,1.8365,1.8357,1.8362,1.8419,1.8426,1.8385,1.8382,1.839,1.8438,1.8457,1.8463,1.8551,1.8476,1.848,1.8483,1.8485,1.8715,1.8718,0,0,0,0,0,0,1.8281,1.8292,1.8396,1.8399,1.8319,1.8362,1.8368,1.8394,1.8425,1.8427,1.8392,1.8388,1.845,1.8457,1.8465,1.857,1.8481,1.8486,1.8489,1.8712,1.8716,1.8719,0,0,0,0,0,0,1.8278,1.8291,1.8393,1.8345,1.8357,1.8367,1.8397,1.8397,1.8415,1.843,1.8432,1.8409,1.8448,1.8458,1.8526,1.8571,1.8488,1.8492,1.8708,1.8713,1.8717,1.8778,0,0,0,0,0,0,1.8274,1.829,1.8321,1.8346,1.836,1.8453,1.8399,1.84,1.8424,1.8419,1.8447,1.8449,1.8447,1.8519,1.8531,1.8577,1.8496,1.8704,1.871,1.8716,1.8772,1.8784,1.8794,0,0,0,0,0,1.8269,1.8335,1.8323,1.8336,1.8399,1.8455,1.8464,1.8459,1.8428,1.846,1.847,1.8449,1.8564,1.8526,1.854,1.8587,1.8701,1.8709,1.8715,1.8767,1.8782,1.8794,0,0,0,0,0,0,1.8315,1.8338,1.8325,1.84,1.8426,1.8449,1.8489,1.8474,1.8509,1.8503,1.8496,1.8503,1.8575,1.8587,1.8545,1.8673,1.8628,1.8638,1.8663,1.8677,1.8688,1.8684,1.8501,0,0,0,0,0,1.8334,1.8377,1.8395,1.846,1.8474,1.8479,1.8504,1.8498,1.8525,1.8535,1.855,1.8578,1.8621,1.8649,1.8689,1.8773,1.8781,1.8813,1.8824,1.8833,1.8843,1.8892,1.8908,1.8742,1.8742,1.8742,0,0,1.8374,1.8391,1.8419,1.847,1.8489,1.8536,1.8489,1.8539,1.8574,1.8543,1.8609,1.8622,1.8652,1.873,1.8765,1.8743,1.889,1.8842,1.8849,1.8854,1.8901,1.8917,1.8931,1.8747,1.8746,1.8745,0,0,1.847,1.8486,1.8544,1.8565,1.8595,1.8599,1.8613,1.8639,1.8646,1.8713,1.8692,1.8734,1.8806,1.883,1.8852,1.8961,1.8944,1.8974,1.9034,1.9082,1.9095,1.9107,1.9149,1.9164,1.8983,1.8983,1.8983,0,1.8515,1.8583,1.8576,1.8629,1.8654,1.8628,1.8689,1.8709,1.8751,1.877,1.8744,1.8838,1.8856,1.8941,1.8968,1.8985,1.9003,1.8972,1.9094,1.9105,1.9116,1.9156,1.9172,1.8987,1.8987,1.8986,1.8986,0,1.864,1.8688,1.8731,1.8773,1.8802,1.8859,1.8862,1.8892,1.8885,1.8892,1.8962,1.8984,1.903,1.9049,1.9041,1.9134,1.912,1.9094,1.9049,1.9136,1.9174,1.9189,1.8992,1.8991,1.899,1.8989,0,0,1.8766,1.8805,1.8822,1.8842,1.8875,1.8913,1.8969,1.9014,1.9043,1.9073,1.9122,1.9186,1.9163,1.9188,1.9183,1.9225,1.9315,1.9195,1.9195,1.9219,1.9423,1.9445,1.9462,1.9303,1.9306,1.9308,1.9422,0,1.8867,1.8965,1.8962,1.9054,1.91,1.9078,1.9128,1.9155,1.9164,1.9205,1.9215,1.9262,1.9227,1.9242,1.9283,1.9296,1.9357,1.9287,1.9352,1.9354,1.9347,1.9482,1.9504,1.961,1.9436,1.9439,1.9441,0,1.8997,1.9034,1.9131,1.916,1.918,1.9224,1.9267,1.9306,1.9338,1.9341,1.9371,1.936,1.942,1.9372,1.9456,1.9409,1.9435,1.9446,1.945,1.9458,1.9404,1.9496,1.9643,1.966,1.9463,1.9461,1.946,0,1.9084,1.9157,1.9226,1.9243,1.9279,1.9311,1.9328,1.9356,1.9385,1.9422,1.9441,1.9485,1.951,1.9545,1.9548,1.9512,1.9635,1.9585,1.9642,1.9642,1.967,1.9669,1.9826,1.9682,1.9682,1.9682,1.9681,0,1.9199,1.926,1.9266,1.9308,1.9377,1.9374,1.9442,1.9456,1.9482,1.9528,1.9511,1.9555,1.9555,1.96,1.9603,1.9674,1.9685,1.9691,1.9692,1.9695,1.9694,1.9713,1.9707,1.9686,1.9685,1.9684,1.9683,0,1.9308,1.9314,1.9388,1.9416,1.9425,1.9475,1.9499,1.9541,1.9549,1.9608,1.9622,1.9635,1.9689,1.9694,1.9755,1.9757,1.9845,1.9836,1.9835,1.9834,1.9891,1.9887,2.0069,2.0095,1.9931,1.9933,1.9934,0,1.9382,1.9429,1.9463,1.9493,1.9511,1.9559,1.9589,1.9588,1.9619,1.966,1.9698,1.975,1.9791,1.9877,1.9893,1.9941,1.9935,1.9996,1.9942,1.9945,1.9941,1.9939,1.9945,2.0007,2.0009,2.001,2.0011,0,1.9514,1.9515,1.9558,1.9604,1.964,1.9675,1.9708,1.9734,1.9738,1.9775,1.9829,1.9861,1.9926,1.9978,2.0026,2.0044,2.003,2.0028,2.0044,2.0049,2.0048,2.0053,1.9866,2.0024,2.0023,2.0022,2.0021,2.0021,1.961,1.9653,1.9684,1.9734,1.9759,1.9791,1.9833,1.9847,1.9892,1.9945,1.9941,2.0002,2.0035,2.0098,2.012,2.017,2.015,2.0172,2.0178,2.0185,2.0193,2.0038,2.0178,2.0177,2.0177,2.0177,2.0177,0,1.9745,1.9764,1.981,1.9858,1.9898,1.988,1.9917,1.9952,2.0006,2.0038,2.0079,2.0144,2.0196,2.0217,2.0268,2.0304,2.0299,2.0317,2.0316,2.0322,2.0205,2.0188,2.0321,2.0321,2.0321,2.0321,2.0321,2.0321,1.9819,1.9891,1.9897,1.9982,2.0001,2.0062,2.0085,2.0116,2.0141,2.0215,2.0258,2.0271,2.0299,2.0353,2.0401,2.0406,2.0427,2.045,2.0452,2.0344,2.0329,2.0315,2.0299,2.0453,2.0453,2.0564,2.0565,2.0566]},{"header":{"parameterUnit":"m.s-1","parameterCategory":1,"la1":30.2991,"la2":30.254,"lo1":-89.0895,"lo2":-89.0444,"dy":0.0017,"dx":0.0017,"nx":28,"ny":28,"refTime":"2024-02-05T09:00:00:Z","depth":0,"parameterNumber":3,"parameterNumberName":"V-component_of_WINDS"},"data":[0,0,0,0,0,0,0,0,0,0,0,0,0,0,0,0,0,0,0,0,0,0,0,0,0,0,0,0,0,0,0,0,0,0,0,0,0,0,0,0,0,0,0,0,0,0,0,0,0,0,0,0,0,0,0,0,0,0,-3.412,-3.412,0,-3.4151,-3.4152,-3.4152,-3.4201,-3.4202,-3.4203,-3.4204,-3.4231,-3.4231,-3.4231,0,0,0,0,0,0,0,0,0,0,0,0,0,-3.4101,-3.4101,-3.412,-3.412,-3.412,-3.4151,-3.4152,-3.4152,-3.4201,-3.4202,-3.4203,-3.4204,-3.4231,-3.4231,-3.4231,0,0,0,0,0,0,0,0,0,0,0,0,0,-3.4118,-3.4101,-3.412,-3.4149,-3.4152,-3.4151,-3.4152,-3.4152,-3.4201,-3.4202,-3.4203,-3.4205,-3.4231,-3.4231,-3.4231,-3.4203,0,0,-3.4231,-3.4231,0,0,0,0,0,0,0,0,-3.4117,-3.4119,-3.4144,-3.4147,-3.415,-3.4174,-3.4155,-3.4169,-3.42,-3.4182,-3.4204,-3.4205,-3.4211,-3.4212,-3.4215,-3.4205,-3.4206,-3.4231,-3.4231,-3.423,-3.423,0,0,0,0,0,0,0,-3.4116,-3.4118,-3.4132,-3.4144,-3.4148,-3.416,-3.4164,-3.4158,-3.4188,-3.4184,-3.4187,-3.4191,-3.4213,-3.4215,-3.4216,-3.4206,-3.4231,-3.423,-3.423,-3.423,-3.4181,-3.418,0,0,0,0,0,0,-3.4111,-3.4116,-3.4131,-3.4133,-3.4137,-3.4159,-3.4164,-3.4165,-3.4189,-3.4194,-3.4189,-3.4193,-3.4215,-3.4216,-3.4217,-3.4191,-3.423,-3.423,-3.423,-3.4182,-3.4181,-3.418,0,0,0,0,0,0,-3.411,-3.4112,-3.413,-3.4126,-3.4129,-3.4158,-3.4159,-3.4165,-3.4167,-3.4193,-3.4198,-3.4187,-3.4216,-3.4218,-3.4208,-3.4192,-3.423,-3.423,-3.4184,-3.4182,-3.418,-3.4134,0,0,0,0,0,0,-3.4109,-3.4111,-3.41,-3.4125,-3.4129,-3.412,-3.4158,-3.4164,-3.4168,-3.4172,-3.4192,-3.4196,-3.4217,-3.4208,-3.4208,-3.4193,-3.423,-3.4185,-3.4183,-3.4181,-3.4137,-3.4131,-3.4125,0,0,0,0,0,-3.4108,-3.4084,-3.41,-3.4101,-3.4117,-3.4119,-3.4121,-3.4147,-3.4166,-3.4156,-3.4174,-3.4196,-3.4194,-3.4207,-3.4207,-3.4191,-3.4186,-3.4184,-3.4181,-3.414,-3.4132,-3.4126,0,0,0,0,0,0,-3.4052,-3.4087,-3.4105,-3.4088,-3.4101,-3.4127,-3.4115,-3.4137,-3.4143,-3.4147,-3.4178,-3.4182,-3.4169,-3.4179,-3.4193,-3.4169,-3.4194,-3.4191,-3.4162,-3.4155,-3.415,-3.4147,-3.423,0,0,0,0,0,-3.4039,-3.4039,-3.4068,-3.405,-3.4056,-3.4085,-3.4086,-3.4106,-3.412,-3.4124,-3.4141,-3.4152,-3.4156,-3.4156,-3.4159,-3.4139,-3.4146,-3.4129,-3.4123,-3.4118,-3.4115,-3.411,-3.4104,-3.4171,-3.4171,-3.4171,0,0,-3.4009,-3.4028,-3.4025,-3.404,-3.4052,-3.4052,-3.4088,-3.4085,-3.4085,-3.4123,-3.4117,-3.413,-3.4145,-3.4132,-3.4127,-3.414,-3.4099,-3.4115,-3.4111,-3.411,-3.4107,-3.41,-3.4095,-3.4169,-3.4169,-3.4169,0,0,-3.3955,-3.3969,-3.3957,-3.397,-3.399,-3.401,-3.4008,-3.4033,-3.4044,-3.4039,-3.4069,-3.407,-3.4072,-3.4084,-3.4089,-3.4047,-3.4069,-3.4047,-3.4017,-3.4011,-3.4006,-3.4002,-3.3989,-3.3984,-3.4045,-3.4044,-3.4044,0,-3.3915,-3.3916,-3.3948,-3.3945,-3.3952,-3.3991,-3.3981,-3.3991,-3.4009,-3.4013,-3.4029,-3.4038,-3.405,-3.4042,-3.4033,-3.4035,-3.4035,-3.4045,-3.4005,-3.4,-3.3997,-3.3985,-3.398,-3.4042,-3.4042,-3.4042,-3.4043,0,-3.3868,-3.3869,-3.3858,-3.3879,-3.3885,-3.3877,-3.3909,-3.3911,-3.3932,-3.3951,-3.3948,-3.3965,-3.3975,-3.3975,-3.3993,-3.3971,-3.398,-3.3999,-3.4025,-3.3987,-3.3977,-3.3973,-3.4038,-3.4039,-3.404,-3.404,0,0,-3.3775,-3.382,-3.3815,-3.3828,-3.3855,-3.3856,-3.3853,-3.3866,-3.3868,-3.3881,-3.388,-3.3885,-3.3906,-3.3912,-3.3933,-3.3928,-3.3899,-3.3949,-3.395,-3.3941,-3.388,-3.3865,-3.386,-3.3914,-3.3913,-3.3912,-3.3879,0,-3.3728,-3.3726,-3.3757,-3.3746,-3.375,-3.379,-3.3787,-3.3804,-3.3823,-3.3829,-3.385,-3.3854,-3.3879,-3.3885,-3.3882,-3.3902,-3.3887,-3.3905,-3.3914,-3.3914,-3.391,-3.3854,-3.3837,-3.3805,-3.3875,-3.3874,-3.3874,0,-3.3671,-3.3686,-3.3676,-3.371,-3.3713,-3.371,-3.3727,-3.3732,-3.3753,-3.3768,-3.3779,-3.3805,-3.3805,-3.3831,-3.3833,-3.3845,-3.3851,-3.3863,-3.3862,-3.3864,-3.3891,-3.3856,-3.3795,-3.379,-3.3868,-3.3868,-3.3868,0,-3.3608,-3.3625,-3.3623,-3.3632,-3.367,-3.3668,-3.3684,-3.3707,-3.3715,-3.373,-3.3736,-3.3749,-3.3757,-3.3768,-3.3797,-3.3813,-3.3798,-3.3824,-3.3811,-3.381,-3.3805,-3.3805,-3.3745,-3.3807,-3.3807,-3.3807,-3.3807,0,-3.3552,-3.3545,-3.3596,-3.3595,-3.359,-3.3627,-3.3621,-3.364,-3.3662,-3.3666,-3.37,-3.3703,-3.3742,-3.375,-3.3773,-3.3773,-3.3776,-3.3788,-3.3795,-3.3786,-3.3785,-3.379,-3.3793,-3.3806,-3.3806,-3.3806,-3.3806,0,-3.3479,-3.3513,-3.3514,-3.3553,-3.3562,-3.3557,-3.359,-3.3591,-3.3615,-3.362,-3.3623,-3.366,-3.3671,-3.3703,-3.3721,-3.3737,-3.3732,-3.3742,-3.3725,-3.3729,-3.3715,-3.3716,-3.3657,-3.3653,-3.3715,-3.3715,-3.3714,0,-3.3442,-3.3438,-3.3478,-3.3485,-3.35,-3.3509,-3.3519,-3.3557,-3.3566,-3.3594,-3.3593,-3.3608,-3.3622,-3.3639,-3.3667,-3.3683,-3.3695,-3.3674,-3.3697,-3.369,-3.3698,-3.3698,-3.3699,-3.3668,-3.3667,-3.3666,-3.3666,0,-3.3372,-3.3391,-3.3404,-3.3425,-3.3437,-3.3454,-3.3473,-3.3477,-3.352,-3.3528,-3.3543,-3.3554,-3.3576,-3.3592,-3.3613,-3.3629,-3.3655,-3.3659,-3.3657,-3.3648,-3.3639,-3.3646,-3.3712,-3.3659,-3.366,-3.3661,-3.3661,-3.3661,-3.3317,-3.3318,-3.3348,-3.3363,-3.3383,-3.3402,-3.3407,-3.3434,-3.3447,-3.347,-3.3491,-3.3504,-3.3531,-3.3563,-3.3578,-3.359,-3.3603,-3.3599,-3.3598,-3.3597,-3.3595,-3.3637,-3.3593,-3.3594,-3.3594,-3.3594,-3.3594,0,-3.3251,-3.3274,-3.3288,-3.3317,-3.333,-3.3357,-3.3381,-3.339,-3.3402,-3.3426,-3.3441,-3.346,-3.3477,-3.3509,-3.3529,-3.3532,-3.3545,-3.3536,-3.3536,-3.354,-3.358,-3.3581,-3.3526,-3.3526,-3.3526,-3.3526,-3.3526,-3.3526,-3.3218,-3.3223,-3.3246,-3.3262,-3.3285,-3.33,-3.3312,-3.3331,-3.3351,-3.3371,-3.3387,-3.3409,-3.3437,-3.346,-3.3478,-3.3487,-3.3494,-3.3481,-3.3494,-3.353,-3.3537,-3.3543,-3.3544,-3.3482,-3.3482,-3.3454,-3.3454,-3.3454]}]]